Погода в Первомайском

Россия / Амурская область     55°06′39″N   124°49′52″E
темп.,
°C
ветер,
м/с
пор.,
м/с
влажн.,
%
обл.,
%
осадки,
мм/ч
давл.,
гПа
погр.,
м
19 сентября, вс
вс1900:000зюз22865 0.0 101933
03:00−1зюз229065 0.0 102016
06:00−2з21920 0.0 102012
09:00+5з24622 0.0 1019393
12:00+9сз46475 0.0 10161309
15:00+11зсз364242 0.0 10141642
18:00+7сз11715 0.0 101410
21:00+3ююз21854 0.0 101611
20 сентября, пн
пн2000:00+1юз119321 0.0 101511
03:00+1зюз119471 0.0 101510
06:00+1зюз119415 0.0 101510
09:00+6зсз1181100 0.0 1014151
12:00+12с116698 0.0 1012576
15:00+13с1161100 0.0 1011875
18:00+10св11825 0.0 101110
21:00+6ю11925 0.0 101310
21 сентября, вт
вт2100:00+4вюв11944 0.0 101410
03:00+3в11963 0.0 101410
06:00+2в11974 0.0 101510
09:00+8в11842 0.0 1014224
12:00+13вюв136738 0.0 1011839
15:00+14в2370100 0.1 1010512
18:00+11юв228652 0.1 101138
21:00+7ю11947 0.1 101310
22 сентября, ср
ср2200:00+5вюв119415 0.0 101410
03:00+5вюв119628 0.0 101513
06:00+5в1196100 0.0 101643
09:00+7в2388100 0.0 1016204
12:00+10вюв346817 0.0 1016541
15:00+11вюв366770 0.0 1015514
18:00+10вюв2573100 0.0 1017170
21:00+7вюв217727 0.0 101925
23 сентября, чт
чт2300:00+4юв119145 0.0 102110
03:00+4в1193100 0.0 102310
06:00+3в1194100 0.0 102416
09:00+6в127487 0.0 1024252
12:00+11вюв235814 0.0 1023726
15:00+12вюв455792 0.0 1021845
18:00+9вюв41171100 0.0 1021438
21:00+4вюв2285100 0.0 102219